Weather History for Tampa, FL

Change the Weather History Date:

Wednesday, May 1, 2013

  Actual Average Record
Temperature  
Mean Temperature 72 °F 75 °F  
Max Temperature 76 °F 84 °F 92 °F (1935)
Min Temperature 68 °F 66 °F 52 °F (1965)
Degree Days  
Heating Degree Days 0 0  
Month to date heating degree days 0 0  
Since 1 July heating degree days 400 538  
Cooling Degree Days 7 10  
Month to date cooling degree days 7 10  
Year to date cooling degree days 585 470  
Growing Degree Days 22 (Base 50)    
Moisture  
Dew Point 68 °F    
Average Humidity 88    
Maximum Humidity 93    
Minimum Humidity 82    
Precipitation  
Precipitation 0.94 in 0.05 in 1.99 in (1924)
Month to date precipitation 0.94 0.05  
Year to date precipitation 8.21 10.15  
Sea Level Pressure  
Sea Level Pressure 29.98 in    
Wind  
Wind Speed 5 mph (East)    
Max Wind Speed 15 mph    
Max Gust Speed 20 mph    
Visibility 8 miles    
Events Rain , Thunderstorm    
T = Trace of Precipitation, MM = Missing Value Source: NWS Daily Summary

Daily Weather History Graph

Daily Weather History Graph

Search for Another Location

Airport:

Trip Planner

Search our weather history database for the weather conditions in past years. The results will help you decide how hot, cold, wet, or windy it might be!

Date:

Astronomy

May. 01, 2013 Rise Set
Actual Time 6:50 AM EDT 8:04 PM EDT
Civil Twilight 6:25 AM EDT 8:29 PM EDT
Nautical Twilight 5:55 AM EDT 8:59 PM EDT
Astronomical Twilight 5:25 AM EDT 9:29 PM EDT
Moon 1:11 AM EDT (5/1) 12:27 PM EDT (5/1)
Length of Visible Light 14h 04m
Length of Day
13h 14m
Waning Gibbous, 59% of the Moon is Illuminated
May 1
Waning Gibbous
May 2
Last Quarter
May 9
New
May 18
First Quarter
May 25
Full

Hourly Weather History & Observations

Time (EDT) Temp. Dew Point Humidity Pressure Visibility Wind Dir Wind Speed Gust Speed Precip Events Conditions
12:02 AM 71.6 °F 68.0 °F 88% 30.00 in 10.0 mi East 4.6 mph - N/A   Partly Cloudy
12:53 AM 72.0 °F 68.0 °F 87% 29.99 in 10.0 mi ENE 4.6 mph - N/A   Partly Cloudy
1:53 AM 72.0 °F 69.1 °F 91% 29.97 in 10.0 mi ESE 4.6 mph - N/A   Partly Cloudy
2:53 AM 72.0 °F 68.0 °F 87% 29.95 in 10.0 mi East 4.6 mph - N/A   Scattered Clouds
3:53 AM 72.0 °F 68.0 °F 87% 29.94 in 10.0 mi ENE 5.8 mph - N/A   Partly Cloudy
4:53 AM 71.1 °F 68.0 °F 90% 29.94 in 10.0 mi ENE 6.9 mph - N/A   Scattered Clouds
5:02 AM 71.6 °F 69.8 °F 94% 29.94 in 10.0 mi ENE 8.1 mph - N/A   Partly Cloudy
5:31 AM 71.6 °F 69.8 °F 94% 29.94 in 10.0 mi Variable 4.6 mph - N/A   Mostly Cloudy
5:53 AM 72.0 °F 69.1 °F 91% 29.95 in 10.0 mi East 6.9 mph - N/A   Mostly Cloudy
6:53 AM 71.6 °F 69.8 °F 94% 29.96 in 10.0 mi Variable 3.5 mph - N/A   Overcast
7:53 AM 73.4 °F 69.8 °F 88% 29.99 in 10.0 mi ESE 5.8 mph - N/A   Overcast
8:06 AM 73.4 °F 69.8 °F 88% 29.99 in 10.0 mi East 4.6 mph - N/A   Overcast
8:53 AM 73.0 °F 69.1 °F 87% 29.99 in 10.0 mi East 5.8 mph - N/A   Overcast
9:53 AM 75.0 °F 70.0 °F 84% 30.01 in 10.0 mi ESE 5.8 mph - N/A   Overcast
10:53 AM 75.0 °F 70.0 °F 84% 30.02 in 10.0 mi East 5.8 mph - N/A   Overcast
11:06 AM 75.2 °F 69.8 °F 83% 30.02 in 7.0 mi ESE 6.9 mph - 0.01 in Rain Light Rain
11:17 AM 75.2 °F 69.8 °F 83% 30.02 in 10.0 mi East 4.6 mph - 0.01 in   Overcast
11:53 AM 75.0 °F 71.1 °F 87% 30.02 in 10.0 mi East 6.9 mph - 0.01 in   Overcast
11:58 AM 75.2 °F 69.8 °F 83% 30.02 in 10.0 mi East 5.8 mph - N/A   Overcast
12:53 PM 75.0 °F 71.1 °F 87% 30.00 in 9.0 mi ENE 5.8 mph - 0.00 in   Overcast
1:53 PM 75.9 °F 71.1 °F 85% 29.99 in 10.0 mi East 5.8 mph - N/A   Overcast
2:53 PM 75.9 °F 71.1 °F 85% 29.97 in 8.0 mi East 4.6 mph - 0.01 in Rain Light Rain
3:51 PM 69.8 °F 66.2 °F 88% 29.97 in 5.0 mi South 15.0 mph 19.6 mph 0.03 in Rain Light Rain
3:53 PM 69.1 °F 66.0 °F 90% 29.97 in 4.0 mi South 11.5 mph 19.6 mph 0.03 in Rain Light Rain
4:26 PM 69.8 °F 66.2 °F 88% 29.96 in 6.0 mi Calm Calm - 0.22 in Rain , Thunderstorm Light Thunderstorms and Rain
4:39 PM 69.8 °F 66.2 °F 88% 29.97 in 0.5 mi Calm Calm - 0.44 in Rain , Thunderstorm Heavy Thunderstorms and Rain
4:50 PM 68.0 °F 66.2 °F 94% 29.98 in 4.0 mi East 3.5 mph - 0.60 in Rain , Thunderstorm Light Thunderstorms and Rain
4:53 PM 68.0 °F 66.9 °F 96% 29.98 in 4.0 mi East 4.6 mph - 0.61 in Rain , Thunderstorm Light Thunderstorms and Rain
5:04 PM 68.0 °F 66.2 °F 94% 29.97 in 4.0 mi Calm Calm - 0.05 in Rain Light Rain
5:53 PM 69.1 °F 66.9 °F 93% 29.97 in 4.0 mi Calm Calm - 0.19 in Rain Light Rain
6:41 PM 69.8 °F 66.2 °F 88% 29.96 in 9.0 mi East 8.1 mph - N/A Rain Light Rain
6:53 PM 69.1 °F 66.9 °F 93% 29.96 in 10.0 mi East 6.9 mph - 0.04 in Rain Light Rain
7:25 PM 69.8 °F 66.2 °F 88% 29.96 in 9.0 mi ESE 6.9 mph - 0.01 in Rain Light Rain
7:43 PM 68.0 °F 66.2 °F 94% 29.96 in 8.0 mi ESE 5.8 mph - 0.02 in Rain Light Rain
7:53 PM 68.0 °F 66.0 °F 93% 29.97 in 8.0 mi ESE 4.6 mph - 0.02 in Rain Light Rain
8:53 PM 68.0 °F 66.0 °F 93% 29.99 in 10.0 mi Calm Calm - 0.01 in Rain Light Rain
9:53 PM 68.0 °F 66.0 °F 93% 29.99 in 10.0 mi ESE 3.5 mph - 0.01 in Rain Light Rain
10:53 PM 68.0 °F 66.0 °F 93% 29.98 in 10.0 mi Calm Calm - 0.00 in   Mostly Cloudy
11:53 PM 69.1 °F 66.0 °F 90% 29.99 in 10.0 mi North 4.6 mph - N/A   Mostly Cloudy